Regional Weather Roundup
Issued by NWS

Home | Current Version | Previous Version | Graphics & Text | Print | Product List | Glossary On
Versions: 1 2 3 4 5 6 7 8 9 10 11 12 13 14 15 16 17 18 19 20 21 22 23 24 25 26 27 28 29 30 31 32 33 34 35 36 37 38 39 40 41 42 43 44 45 46 47 48 49 50
000
ASUS43 KBIS 010559
RWRND

NORTH DAKOTA REGIONAL WEATHER ROUNDUP
NATIONAL WEATHER SERVICE BISMARCK ND
100 AM CDT WED OCT 01 2014

NOTE: "FAIR" INDICATES FEW OR NO CLOUDS BELOW 12,000 FEET WITH NO
SIGNIFICANT WEATHER AND/OR OBSTRUCTIONS TO VISIBILITY.


NDZ001>003-009>011-017-010700-
NORTHWEST NORTH DAKOTA

CITY           SKY/WX    TMP DP  RH WIND       PRES   REMARKS
WILLISTON      LGT RAIN  52  50  93 SW6       29.49S
6HR MIN TEMP:  51; 6HR MAX TEMP:  53; 6HR PCP:  0.08;

MINOT          CLOUDY    51  50  96 NW8       29.39F FOG
MINOT AFB      DRIZZLE   51  51 100 NW10      29.39F FOG
$$

NDZ018>021-031>035-040>046-010700-
SOUTHWEST NORTH DAKOTA

CITY           SKY/WX    TMP DP  RH WIND       PRES   REMARKS
BISMARCK       CLOUDY    53  51  93 SW13      29.49R
6HR MIN TEMP:  53; 6HR MAX TEMP:  56; 6HR PCP:  0.07;

DICKINSON      CLOUDY    53  51  93 W17       29.51S
GARRISON         N/A     51  50  96 W9        29.43R
6HR MIN TEMP:  51; 6HR MAX TEMP:  52; 6HR PCP:  0.44;

HETTINGER ARPT CLOUDY    53  51  93 W15       29.58R
$$

NDZ004>008-012>016-024-026-027-054-010700-
NORTHEAST NORTH DAKOTA

CITY           SKY/WX    TMP DP  RH WIND       PRES   REMARKS
GRAND FORKS    CLOUDY    59  51  75 SE23G32   29.52F
DEVILS LAKE    CLOUDY    57  52  82 S24G31    29.39F
$$

NDZ022-023-025-028>030-036>039-047>053-010700-
SOUTHEAST NORTH DAKOTA

CITY           SKY/WX    TMP DP  RH WIND       PRES   REMARKS
FARGO          CLOUDY    62  55  77 S21G37    29.57F
6HR MIN TEMP:  58; 6HR MAX TEMP:  62; 6HR PCP: TRACE;

$$



USA.gov is the U.S. government's official web portal to all federal, state and local government web resources and services.